Kingston, Jamaica

11:32 PM EST on November 23, 2017 (GMT -0500)
Norman Manley International

Weather History for MKJP - February, 2013

Change the Weather History Date:

Monday, February 11, 2013

  Actual Average Record
Temperature  
Mean Temperature 81 °F -  
Max Temperature 88 °F 84 °F 89 °F (1997)
Min Temperature 74 °F 74 °F 71 °F (2015)
Cooling Degree Days 16    
Growing Degree Days 31 (Base 50)    
Moisture  
Dew Point 71 °F    
Average Humidity 72    
Maximum Humidity 83    
Minimum Humidity 61    
Precipitation  
Precipitation 0.00 in - - ()
Sea Level Pressure  
Sea Level Pressure 30.02 in    
Wind  
Wind Speed 9 mph ()    
Max Wind Speed 25 mph    
Max Gust Speed -    
Visibility 7.8 miles    
Events Rain    
Averages and records for this station are not official NWS values.
T = Trace of Precipitation, MM = Missing Value Source: Averaged Metar Reports

Daily Weather History Graph

Daily Weather History Graph

Search for Another Location

Airport or City:

Trip Planner

Search our weather history database for the weather conditions in past years. The results will help you decide how hot, cold, wet, or windy it might be!

Date:

Astronomy

Feb. 11, 2013 Rise Set
Actual Time 6:36 AM EST 6:06 PM EST
Civil Twilight 6:13 AM EST 6:29 PM EST
Nautical Twilight 5:47 AM EST 6:54 PM EST
Astronomical Twilight 5:22 AM EST 7:20 PM EST
Moon 7:19 AM EST (2/11) 7:36 PM EST (2/11)
Length of Visible Light 12h 15m
Length of Day
11h 30m
Waxing Crescent, 3% of the Moon is Illuminated
Feb 11
Waxing Crescent
Feb 17
First Quarter
Feb 25
Full
Mar 4
Last Quarter
Mar 11
New

Hourly Weather History & Observations

Time (EST) Temp. Heat Index Dew Point Humidity Pressure Visibility Wind Dir Wind Speed Gust Speed Precip Events Conditions
12:00 AM 78.8 °F - 69.8 °F 74% 30.04 in 6.2 mi WSW 4.6 mph - N/A   Partly Cloudy
1:00 AM 78 °F - 72 °F 78% 30.02 in 12 mi NNW 5.8 mph - -   Haze
1:00 AM 78.8 °F - 73.4 °F 83% 30.01 in 6.2 mi NNW 5.8 mph - N/A   Partly Cloudy
2:00 AM 77.0 °F - 71.6 °F 83% 30.01 in 6.2 mi NNW 8.1 mph - N/A   Partly Cloudy
3:00 AM 78.8 °F - 69.8 °F 74% 29.98 in 6.2 mi North 5.8 mph - N/A   Partly Cloudy
4:00 AM 77 °F - 69 °F 71% 29.99 in 12 mi West 4.6 mph - -   Haze
4:00 AM 77.0 °F - 69.8 °F 78% 29.98 in 6.2 mi West 4.6 mph - N/A   Partly Cloudy
5:00 AM 75.2 °F - 69.8 °F 83% 29.98 in 6.2 mi West 6.9 mph - N/A   Partly Cloudy
6:00 AM 75.2 °F - 68.0 °F 78% 30.01 in 6.2 mi NW 6.9 mph - N/A   Partly Cloudy
7:00 AM 76 °F - 70 °F 78% 30.04 in 12 mi NNW 6.9 mph - -   Haze
7:00 AM 77.0 °F - 69.8 °F 78% 30.04 in 6.2 mi NNW 6.9 mph - N/A   Partly Cloudy
8:00 AM 77.0 °F - 69.8 °F 78% 30.04 in 6.2 mi NW 5.8 mph - N/A   Partly Cloudy
9:00 AM 80.6 °F 83.9 °F 69.8 °F 70% 30.06 in 6.2 mi NNW 4.6 mph - N/A   Partly Cloudy
10:00 AM 81 °F - 70 °F 61% 30.09 in 12 mi North 4.6 mph - -   Haze
10:00 AM 80.6 °F 83.9 °F 69.8 °F 70% 30.06 in 6.2 mi North 4.6 mph - N/A   Partly Cloudy
11:39 AM 84.2 °F 90.9 °F 73.4 °F 70% 30.04 in 6.2 mi SSE 20.7 mph - N/A   Partly Cloudy
12:00 PM 84.2 °F 89.6 °F 71.6 °F 66% 30.04 in 6.2 mi SE 19.6 mph - N/A   Partly Cloudy
1:00 PM 85 °F - 75 °F 65% 30.03 in 17 mi SSE 19.6 mph - -   Haze
1:00 PM 84.2 °F 92.3 °F 75.2 °F 74% 30.01 in 6.2 mi SSE 19.6 mph - N/A   Partly Cloudy
2:00 PM 84.2 °F 89.6 °F 71.6 °F 66% 30.01 in 6.2 mi SSE 18.4 mph - N/A   Mostly Cloudy
3:00 PM 82.4 °F 86.3 °F 69.8 °F 66% 29.98 in 6.2 mi SE 23.0 mph - N/A   Partly Cloudy
4:00 PM 84 °F - 73 °F 62% 29.98 in 12 mi SSE 24.2 mph - -   Mostly Cloudy
4:00 PM 84.2 °F 90.9 °F 73.4 °F 70% 29.98 in 6.2 mi SSE 24.2 mph - N/A   Mostly Cloudy
5:00 PM 82.4 °F 88.2 °F 73.4 °F 74% 29.95 in 6.2 mi SSE 25.3 mph - N/A   Mostly Cloudy
7:00 PM 81 °F - 71 °F 64% 29.99 in 9 mi SE 20.7 mph - - Rain Light Rain Showers
7:00 PM 80.6 °F 84.6 °F 71.6 °F 74% 29.98 in 6.2 mi SE 20.7 mph - N/A   Scattered Clouds
9:00 PM 80.6 °F 83.9 °F 69.8 °F 70% 30.04 in 6.2 mi SE 9.2 mph - N/A   Partly Cloudy
10:00 PM 80 °F - 70 °F 65% 30.05 in 11 mi East 8.1 mph - -   Haze
10:00 PM 80.6 °F 83.9 °F 69.8 °F 70% 30.04 in 6.2 mi East 8.1 mph - N/A   Partly Cloudy
11:00 PM 78.8 °F - 71.6 °F 78% 30.04 in 6.2 mi North 5.8 mph - N/A   Partly Cloudy